DMSP 5D-2 F13 DEB, 40489

Orbit data source: Space-Track

DMSP 5D-2 F13 DEB, 40489 is space debris in SSO originally from a launch on Fri, 24 Mar 1995 UTC launched from the Air Force Western Test Range (AFWTR). Debris objects in space refer to the collection of defunct objects orbiting the Earth. Examples of debris include non-operational satellites, rocket bodies, and fragments generated from explosions, collisions, or faulty payload assembly.

Loading next visibility...
Identifier
40489, 1995-015CC
Orbit
SSO
Country
Flag of USUS
Related business
Manufacturer
Unknown
Mission
Spacecraft
Bus & Motor
Unknown
Mass
Unknown
Launch date (UTC)
1995-03-24 (31 years ago)
Launch vehicle
Unknown
Launch site
Air Force Western Test Range (AFWTR)
Object type
Payload
Rocket body
Debris
Shape & HBR
Unknown shape, 0.1 m
Radar Cross Section
Small (<0.1 m²)

Expand to show TLE details & history
Last TLE update: 3 days ago

TLE from 3 days ago
0 DMSP 5D-2 F13 DEB
1 40489U 95015CC  25284.38052537  .00017523  00000-0  49326-2 0  9993
2 40489  98.7402 252.3469 0038860 348.6232  11.4076 14.45430509545234
Epoch: 2025-10-11T09:07Z
TLE epoch observation values (Epoch: 2025-10-11T09:07:57.391Z)
Latitude
-0.00007°
Longitude
95.14494°
Altitude
716.442 km
Speed
7.512 km/s
True Right ascension
16h 49m 23s
True Declination
0° 00' 00"
Sunlit
Object was in daylight at epoch
Visualization orbit readout
Latitude
Unknown
Longitude
Unknown
Altitude
Unknown
Speed
Unknown
Apparent Right ascension
Unknown
Apparent Declination
Unknown
Sunlit
N/A
Visualization observer readout
Local Sidereal Time
09:33:23
Azimuth
Unknown
Elevation
Unknown
Doppler factor
Unknown
Orbital elements
Apogee altitude
765.391 km
Perigee altitude
710.086 km
Semi-major axis
7,115.875 km
Eccentricity
0.00389
Inclination
98.7402°
RAAN
252.3469°
Arg. of periapsis
348.6232°
True anomaly
11.4961°
Mean anomaly
11.4076°
Eccentric anomaly
11.45181°
Mean motion
3.61577 °/min
Orbital period
99.56 mins
BSTAR
0.0049326
Loading maneuver chart data...
Computing Atmospheric mass density...

Documentation

Showing up to 5 results
|